STARLINK-4041 (52695 NORAD) Tracking and Keplerian Element Data

This shows tracking and keplerian element data for the satellite.

Feedback or suggestion? Click here.




ElementValue
Catalog52695
NameSTARLINK-4041
Epoch Orbit891
Epoch Day193.25001157
Epoch Year2022
RAAN29.4547
Inclination53.2175
Eccentricity0.0001632
Argument of Perigee34.0236
Mean Anonmoly143.942
Mean Motion15.35974616
Decay Rate-0.00659902
L11 52695U 22053AR 22193.25001157 -.00659902 00000+0 -19976-1 0 9992
L22 52695 53.2175 29.4547 0001632 34.0236 143.9420 15.35974616 8911

Live tracking and technical data element details for STARLINK-4041 (NORAD 52695). STARLINK-4041 can be tracked NOW for your location showing map with azimuth and elevation plus other details from your city location.

Track the satellite on the map from your city or location and see movement details for azimuth, elevation, latitude, longitude, range, height, and movement on the map or in text.







IsCatalogInMostPopularTable: catalog: 52695, numindb: 8
Update: records affected: 1



GetName: 52695 STARLINK-4041

Hit Count: updated at: Sun, 14 Aug 2022 00:47:06 GMT